Location: N�rnberg
(49.4471°N, 11.0632°E)
Time: 16:23:08
(UTC+01:00)

ARIANE 6 FM1 Upper Stage - Pass Details

Date: 10 February 2026
Orbit: 523 x 607 km, 62.0° (Epoch: 7 March)

Event Time Altitude Azimuth Distance (km) Brightness Sun altitude
Rises 20:15:49 0° 316° (NW) 2,663 6.9 -27.8°
Reaches altitude 10° 20:18:04 10° 323° (NW) 1,769 5.8 -28.2°
Enters shadow 20:19:34 21° 333° (NNW) 1,219 4.7 -28.4°
